Location: Bartlow
(52.0833°N, 0.3167°E)
Time: 21:21:59
(UTC+00:00)

Lacrosse 4 Rocket - Pass Details

Date: 26 September 2023
Orbit: 528 x 604 km, 68.0° (Epoch: 09 December)

Event Time Altitude Azimuth Distance (km) Brightness Sun altitude
Exits shadow 02:36:04 39° 69° (ENE) 871 2.7 -28.4°
Drops below altitude 10° 02:39:02 10° 44° (NE) 1,903 5.0 -28.1°
Enters shadow 03:37:12 -66° 221° (SW) 12,190 8.1 -20.6°
